Vertical_Velocity
0 -0 1 0 1 2 4 -0 4 -8 -3 1 1 -5 -3 -1 1 -0 -1 -2 -1 -1 -3 -1 -1 1 2 1 -1 -2 -2 0 -1 -2 -2 -2 -0 -3 -4 -2 -2 -2 -1 -5
-4 1 -1 -1 1 -3 -1 -2 -3 -1 -8 -11 6 -0 2 -1 -2 -1 -4 -6 -5 -3 -0 -1 -2 -2 0 -1 -3 -2 -2 -3 -2 -2 -1 -2 -3 -2 -4 -2 -1 -2 -2 -2
-5 -1 -1 0 -2 -3 -1 -1 5 1 -2 -8 -6 1 2 -7 -7 -6 -5 -4 -3 -2 -2 -1 -2 -2 -2 -3 -3 -2 -3 -1 -1 -2 -2 -2 -3 -4 -4 -1 -1 -3 -3 -2
-5 -4 2 -3 -3 -3 -3 3 -1 1 -1 -3 -3 6 5 0 2 -1 -1 -1 0 -1 -2 -0 -1 -0 -0 1 0 -2 -1 -2 -1 -1 -1 -1 -1 -1 -6 -3 -1 2 2 -1
2 0 -3 -3 -2 -1 1 -14 -1 -2 1 2 -6 -2 22 10 7 5 2 1 0 0 0 -2 -2 -1 0 1 0 -1 -1 -1 -1 -0 -1 -1 -1 -0 -2 1 1 1 6 8
1 2 1 -3 -2 -1 -1 0 -1 -0 1 -5 -4 -17 -6 -7 -3 -10 -7 -2 -6 -1 -1 1 0 -2 0 0 1 2 2 -1 -2 -1 -1 1 -2 0 -1 1 4 3 -1 1
0 1 -3 2 1 1 2 -3 1 -0 0 -1 -2 4 -2 -2 1 5 1 -4 -2 3 2 -0 1 -1 1 0 2 2 1 0 1 1 0 -1 -0 -1 2 1 2 10 9 11
-2 -0 -0 -1 -6 3 -0 4 -2 2 -0 0 5 2 2 4 0 -2 -5 -4 -0 -0 -1 0 1 0 1 0 1 2 1 1 -0 2 1 0 1 -0 -0 -0 -2 2 5 5
-5 -4 2 -4 -2 -0 -0 -2 -1 -0 1 -2 -1 -0 -1 -6 -5 -4 -1 -3 1 -2 -2 4 2 3 1 3 3 3 4 1 1 1 2 2 1 1 1 1 -1 -4 1 3
1 -3 -1 -1 -2 -0 0 -1 -0 0 -1 -0 -2 -3 2 -1 -2 -2 -2 -3 -3 -2 2 -0 2 4 4 1 1 2 1 2 1 1 4 2 1 1 -1 2 -1 1 -4 -2
-4 0 -2 1 -1 -1 3 -1 -0 1 -5 -2 -2 1 -3 -2 1 -1 -3 1 -2 -4 -1 1 2 3 3 1 0 2 1 1 1 0 2 2 2 4 0 1 1 -2 1 -2
-2 -3 0 3 -0 -1 1 1 1 0 5 1 -1 -1 -0 2 -1 -3 -3 -3 -0 1 1 1 3 4 0 1 2 -1 0 1 1 -1 1 4 2 2 2 1 0 1 2 2
-2 0 -0 -2 -1 -2 1 1 -0 0 -1 1 1 -1 -0 -2 -3 -2 0 -0 0 -3 -2 -0 1 3 4 -1 1 2 3 2 1 0 1 -0 2 2 2 1 3 1 -2 -1
-2 -1 1 -1 0 1 -0 0 -1 -2 -2 -1 1 -1 -1 -3 0 0 -0 -2 -3 -2 -0 1 2 2 1 2 1 1 5 2 1 3 2 1 0 1 2 0 0 1 1 1
-2 -2 -1 0 -0 -0 -0 -0 -1 0 2 1 -1 1 -1 1 4 1 -0 -1 -0 -1 2 5 -0 3 -0 2 0 -0 2 3 2 1 4 3 3 1 1 4 3 2 2 1
-4 -4 -2 -2 -1 -1 0 -1 -1 1 1 2 2 1 -1 -2 -3 -3 -3 -3 -3 -4 -1 -0 2 -1 -1 2 -2 2 4 2 1 4 3 5 4 3 3 2 3 3 2 2
-1 -1 -1 -3 -1 -1 0 -0 1 1 1 1 1 -0 1 1 -2 1 3 1 -0 1 -2 -2 2 -3 1 1 -1 -1 -1 1 3 2 0 1 0 1 1 3 3 1 1 3
-3 -1 -0 2 3 2 -0 -1 -0 -0 -0 0 1 -0 0 0 -0 -0 -1 -0 1 1 1 2 -0 0 -0 -0 -2 -1 0 -1 -1 0 1 0 -1 1 2 2 2 1 -0 -0
-1 -0 -1 -0 -1 -1 -0 -0 -1 -0 -0 0 -0 -1 0 -0 -2 -3 -2 -0 1 2 5 2 -4 3 0 -1 -2 -0 1 1 0 -1 -1 -0 1 -0 -1 -1 0 1 3 3
-1 -0 -0 -1 -0 1 -0 -1 -1 -1 0 0 -0 -0 -1 -0 2 -0 -3 -4 -5 -7 -4 -2 -2 4 -1 0 1 -0 -1 -0 1 -1 -2 -1 -1 -2 -1 -2 -1 -1 -1 -1
-1 -1 -0 -1 -1 1 -0 1 1 -0 -1 0 1 0 1 -1 -1 1 1 2 3 2 -2 -1 -3 1 -3 -2 1 1 0 -1 1 1 1 1 -1 -1 -2 -2 -1 -3 -1 -0
-0 -0 -0 -0 -1 -1 0 -0 0 -0 -0 -1 -1 -0 0 1 -3 -6 -3 -3 1 0 -1 -2 -0 -0 -3 -3 -2 -1 0 0 -0 -1 -1 -1 -0 1 1 0 -1 -2 -2 -3
-0 -0 -0 -0 -0 -1 -0 1 2 1 -0 -0 -1 -0 -1 1 3 4 4 1 0 0 -1 -1 -1 -1 0 0 0 -1 -1 0 -1 -2 -3 -3 -2 -2 -2 -1 0 1 2 2
-1 0 -0 -0 0 1 -1 -2 -1 0 2 1 1 1 0 -2 -4 -2 -2 -3 -2 -1 1 0 -0 -1 -2 -1 0 1 0 -1 -1 -1 -1 -1 -0 -2 -1 -1 -1 -2 -4 -4
0 0 -0 -1 -1 -0 0 0 0 -1 -1 -0 -0 0 0 1 1 2 2 0 -1 -1 -1 -1 -2 -1 -1 -1 -1 -1 -1 -1 -0 -1 1 1 0 -1 -2 -1 -0 -1 -1 -1
-0 0 -0 0 0 -0 0 0 1 2 1 -1 -1 -2 -2 -1 -1 -1 -1 -1 -1 -1 -1 -1 0 1 -1 1 0 -1 0 0 1 0 -1 -1 0 0 0 0 1 1 0 -1
-0 0 0 -2 1 -0 0 1 0 -0 0 -0 -1 1 -0 -1 -2 -1 -1 -1 -1 -0 0 1 1 0 0 -1 -0 -1 -1 -1 0 0 0 -0 -0 -0 0 1 1 -0 -0 -1
Height
3073 3070 3067 3065 3062 3060 3057 3054 3051 3045 3041 3037 3028 3021 3014 3005 2998 2991 2984 2977 2969 2962 2955 2949 2942 2936 2930 2924 2918 2912 2908 2904 2900 2898 2896 2895 2893 2891 2889 2886 2884 2884 2884 2886
3068 3065 3063 3060 3057 3055 3053 3050 3047 3042 3037 3030 3025 3017 3010 3001 2993 2986 2979 2972 2965 2957 2950 2943 2936 2929 2924 2918 2911 2906 2901 2897 2893 2890 2889 2887 2885 2884 2882 2879 2877 2876 2876 2878
3064 3061 3058 3055 3053 3052 3049 3046 3044 3038 3032 3026 3017 3011 3003 2995 2989 2982 2974 2966 2959 2952 2944 2937 2930 2924 2917 2911 2905 2899 2894 2890 2886 2883 2882 2880 2879 2877 2876 2875 2871 2869 2869 2869
3063 3060 3054 3050 3049 3048 3046 3042 3037 3032 3028 3022 3013 3006 3000 2992 2985 2978 2970 2962 2955 2947 2939 2933 2926 2919 2913 2906 2899 2893 2888 2884 2880 2877 2875 2874 2873 2871 2870 2867 2865 2862 2862 2862
3064 3060 3056 3047 3046 3045 3041 3035 3030 3028 3022 3015 3009 3003 3000 2991 2983 2975 2967 2960 2952 2944 2936 2928 2921 2914 2907 2900 2893 2887 2883 2878 2875 2871 2869 2868 2867 2866 2864 2861 2859 2857 2856 2855
3062 3060 3052 3047 3045 3042 3037 3030 3026 3022 3017 3010 3003 2996 2992 2986 2979 2973 2966 2957 2948 2940 2933 2926 2918 2910 2902 2895 2888 2883 2878 2874 2870 2867 2864 2863 2862 2860 2859 2856 2855 2853 2852 2850
3057 3056 3051 3045 3043 3039 3037 3034 3024 3019 3012 3007 3001 2995 2985 2979 2974 2968 2960 2953 2945 2938 2930 2922 2914 2906 2898 2891 2885 2879 2874 2870 2866 2863 2860 2858 2857 2855 2854 2852 2850 2848 2847 2845
3051 3052 3048 3044 3041 3038 3032 3025 3020 3015 3009 3003 2998 2992 2985 2979 2972 2964 2956 2949 2943 2935 2927 2920 2912 2903 2895 2888 2882 2876 2871 2866 2862 2859 2856 2855 2853 2852 2851 2849 2846 2844 2843 2842
3050 3046 3042 3039 3035 3030 3025 3020 3014 3009 3005 2999 2995 2989 2983 2976 2969 2961 2954 2947 2940 2932 2924 2917 2910 2901 2892 2886 2880 2874 2869 2864 2859 2856 2853 2851 2850 2849 2848 2846 2845 2843 2842 2841
3044 3041 3038 3034 3029 3025 3021 3015 3011 3006 3001 2996 2992 2986 2980 2972 2966 2959 2952 2945 2938 2930 2923 2915 2908 2900 2892 2885 2879 2873 2867 2861 2857 2854 2851 2849 2847 2847 2847 2845 2843 2843 2841 2840
3038 3036 3033 3029 3024 3020 3016 3011 3007 3003 2998 2993 2988 2983 2976 2970 2964 2957 2951 2944 2936 2929 2921 2914 2907 2900 2892 2885 2879 2873 2867 2860 2856 2852 2850 2848 2846 2845 2844 2844 2843 2842 2842 2840
3034 3031 3027 3024 3019 3015 3011 3007 3003 2998 2995 2990 2985 2980 2974 2969 2962 2956 2949 2943 2937 2929 2922 2915 2907 2900 2892 2886 2880 2873 2868 2862 2856 2852 2850 2847 2846 2845 2843 2843 2843 2843 2841 2841
3030 3026 3022 3018 3015 3011 3007 3003 2999 2994 2990 2986 2982 2977 2972 2967 2962 2956 2949 2943 2936 2929 2922 2915 2908 2901 2894 2887 2882 2876 2870 2865 2860 2855 2852 2849 2847 2845 2844 2844 2842 2843 2843 2841
3025 3022 3019 3014 3011 3007 3003 2999 2995 2991 2986 2982 2979 2975 2971 2966 2961 2955 2949 2943 2936 2930 2924 2917 2910 2903 2896 2890 2884 2879 2875 2869 2865 2860 2857 2854 2851 2849 2847 2846 2845 2845 2844 2843
3020 3017 3014 3011 3007 3003 2999 2996 2992 2988 2985 2981 2978 2974 2970 2966 2961 2954 2948 2943 2937 2931 2926 2920 2912 2905 2898 2893 2886 2881 2877 2873 2869 2865 2861 2858 2856 2853 2851 2849 2848 2846 2846 2845
3017 3014 3010 3006 3003 2999 2996 2993 2990 2986 2983 2979 2976 2973 2969 2965 2959 2954 2948 2942 2936 2930 2925 2918 2913 2907 2901 2895 2889 2885 2880 2876 2872 2869 2866 2862 2859 2857 2855 2853 2852 2850 2849 2848
3015 3012 3008 3003 3000 2997 2994 2990 2987 2984 2980 2977 2973 2971 2968 2964 2959 2955 2949 2943 2936 2931 2926 2920 2915 2909 2904 2898 2892 2888 2884 2880 2876 2873 2870 2866 2864 2861 2859 2857 2855 2854 2852 2851
3013 3009 3006 3002 2999 2995 2992 2988 2985 2981 2978 2975 2971 2969 2965 2962 2958 2954 2949 2944 2939 2934 2929 2924 2917 2912 2906 2901 2896 2891 2887 2883 2880 2877 2873 2870 2868 2865 2863 2860 2859 2857 2856 2855
3010 3007 3003 2999 2996 2992 2989 2986 2982 2979 2976 2972 2969 2966 2964 2961 2957 2953 2949 2944 2940 2935 2930 2925 2919 2915 2909 2903 2899 2894 2890 2887 2883 2880 2877 2874 2871 2869 2866 2864 2862 2860 2858 2857
3007 3004 3001 2997 2994 2990 2987 2983 2980 2977 2974 2970 2967 2964 2962 2959 2957 2953 2949 2944 2940 2935 2930 2926 2920 2917 2911 2906 2902 2898 2894 2890 2886 2882 2879 2876 2874 2871 2869 2867 2865 2863 2861 2860
3003 3001 2998 2995 2992 2989 2985 2982 2978 2975 2971 2969 2966 2963 2960 2958 2955 2953 2950 2947 2943 2938 2933 2927 2922 2919 2913 2909 2905 2901 2897 2893 2889 2885 2882 2878 2875 2873 2871 2869 2867 2865 2863 2861
3000 2997 2995 2992 2990 2986 2983 2980 2976 2973 2970 2966 2963 2960 2958 2956 2953 2951 2949 2946 2942 2938 2934 2929 2926 2920 2915 2912 2908 2904 2900 2896 2892 2889 2885 2882 2878 2875 2872 2870 2868 2866 2864 2862
2996 2994 2992 2989 2987 2984 2981 2978 2974 2971 2968 2965 2962 2958 2955 2954 2952 2950 2948 2945 2942 2939 2935 2931 2927 2923 2919 2914 2911 2907 2903 2899 2895 2892 2888 2884 2881 2878 2875 2872 2869 2867 2864 2862
2993 2990 2988 2986 2983 2981 2978 2975 2972 2969 2966 2963 2960 2957 2954 2951 2949 2947 2945 2943 2941 2938 2935 2932 2928 2925 2921 2917 2913 2909 2905 2902 2898 2894 2891 2887 2884 2881 2878 2875 2872 2869 2865 2863
2989 2986 2984 2982 2979 2977 2975 2972 2969 2966 2963 2960 2957 2954 2952 2949 2947 2945 2943 2941 2939 2937 2934 2932 2929 2926 2922 2919 2915 2911 2907 2903 2900 2896 2893 2890 2886 2883 2880 2877 2874 2871 2868 2865
2984 2982 2980 2978 2976 2973 2971 2969 2967 2964 2961 2958 2955 2952 2950 2947 2945 2942 2940 2938 2936 2934 2932 2930 2928 2926 2923 2920 2916 2913 2909 2905 2902 2898 2895 2891 2888 2885 2882 2879 2876 2873 2869 2865
2980 2978 2975 2973 2971 2969 2968 2966 2964 2961 2958 2956 2953 2951 2948 2945 2943 2940 2938 2936 2934 2932 2930 2928 2926 2924 2922 2919 2917 2913 2910 2907 2903 2900 2896 2893 2890 2887 2884 2880 2877 2874 2871 2867